contact:dominique.lefevre@mio.osupytheas.fr, maurice.libes@osupytheas.fr, didier.mallarino@osupytheas.fr
Project:EMSO http://www.emso-fr.org/EMSO-France
Depth: 2436.0 m
Title:EMSO Ligure Ouest : Data MII capteur MICROCAT
DateTime_Computer,Latitude,Longitude,Temperature,Conductivity,Pressure,DateTime_Instrument
DateTime_Computer,Latitude,Longitude,degC,S m-1,dbar,DateTime_Instrument
2023-10-01T00:02:32Z,42.805,6.029,13.3031,4.60093,2470.693,2023-10-01T02:04:55Z
2023-10-01T00:05:35Z,42.805,6.029,13.3030,4.60092,2470.693,2023-10-01T02:07:58Z
2023-10-01T00:08:38Z,42.805,6.029,13.3031,4.60095,2470.74,2023-10-01T02:11:01Z
2023-10-01T00:11:41Z,42.805,6.029,13.3030,4.60093,2470.693,2023-10-01T02:14:05Z
2023-10-01T00:14:44Z,42.805,6.029,13.3035,4.60096,2470.646,2023-10-01T02:17:08Z
2023-10-01T00:17:47Z,42.805,6.029,13.3035,4.60093,2470.693,2023-10-01T02:20:11Z
2023-10-01T00:20:50Z,42.805,6.029,13.3031,4.60094,2470.693,2023-10-01T02:23:14Z
2023-10-01T00:23:54Z,42.805,6.029,13.3034,4.60094,2470.693,2023-10-01T02:26:17Z
2023-10-01T00:26:57Z,42.805,6.029,13.3031,4.60093,2470.717,2023-10-01T02:29:20Z
2023-10-01T00:30:00Z,42.805,6.029,13.3029,4.60094,2470.693,2023-10-01T02:32:23Z
2023-10-01T00:33:03Z,42.805,6.029,13.3031,4.60093,2470.67,2023-10-01T02:35:26Z
2023-10-01T00:36:06Z,42.805,6.029,13.3032,4.60094,2470.717,2023-10-01T02:38:29Z
2023-10-01T00:39:09Z,42.805,6.029,13.3036,4.60093,2470.693,2023-10-01T02:41:32Z
2023-10-01T00:42:12Z,42.805,6.029,13.3029,4.60093,2470.67,2023-10-01T02:44:35Z
2023-10-01T00:45:15Z,42.805,6.029,13.3036,4.60094,2470.67,2023-10-01T02:47:38Z
2023-10-01T00:48:18Z,42.805,6.029,13.3028,4.60094,2470.693,2023-10-01T02:50:41Z
2023-10-01T00:51:21Z,42.805,6.029,13.3033,4.60094,2470.693,2023-10-01T02:53:45Z
2023-10-01T00:54:24Z,42.805,6.029,13.3030,4.60095,2470.684,2023-10-01T02:56:48Z
2023-10-01T00:57:27Z,42.805,6.029,13.3030,4.60094,2470.646,2023-10-01T02:59:51Z
2023-10-01T01:00:30Z,42.805,6.029,13.3034,4.60094,2470.646,2023-10-01T03:02:54Z
2023-10-01T01:03:34Z,42.805,6.029,13.3032,4.60094,2470.67,2023-10-01T03:05:57Z
2023-10-01T01:06:37Z,42.805,6.029,13.3034,4.60094,2470.67,2023-10-01T03:09:00Z
2023-10-01T01:09:40Z,42.805,6.029,13.3032,4.60095,2470.646,2023-10-01T03:12:03Z
2023-10-01T01:12:43Z,42.805,6.029,13.3031,4.60094,2470.646,2023-10-01T03:15:06Z
2023-10-01T01:15:46Z,42.805,6.029,13.3032,4.60095,2470.67,2023-10-01T03:18:09Z
2023-10-01T01:18:49Z,42.805,6.029,13.3033,4.60095,2470.646,2023-10-01T03:21:12Z
2023-10-01T01:21:52Z,42.805,6.029,13.3034,4.60095,2470.661,2023-10-01T03:24:15Z
2023-10-01T01:24:55Z,42.805,6.029,13.3036,4.60096,2470.646,2023-10-01T03:27:18Z
2023-10-01T01:27:58Z,42.805,6.029,13.3034,4.60096,2470.624,2023-10-01T03:30:21Z
2023-10-01T01:31:01Z,42.805,6.029,13.3036,4.60096,2470.646,2023-10-01T03:33:24Z
2023-10-01T01:34:04Z,42.805,6.029,13.3031,4.60095,2470.67,2023-10-01T03:36:28Z
2023-10-01T01:37:07Z,42.805,6.029,13.3031,4.60095,2470.637,2023-10-01T03:39:31Z
2023-10-01T01:40:10Z,42.805,6.029,13.3032,4.60097,2470.661,2023-10-01T03:42:34Z
2023-10-01T01:43:13Z,42.805,6.029,13.3033,4.60096,2470.646,2023-10-01T03:45:37Z
2023-10-01T01:46:17Z,42.805,6.029,13.3033,4.60096,2470.637,2023-10-01T03:48:40Z
2023-10-01T01:49:20Z,42.805,6.029,13.3033,4.60095,2470.661,2023-10-01T03:51:43Z
2023-10-01T01:52:23Z,42.805,6.029,13.3035,4.60097,2470.624,2023-10-01T03:54:46Z
2023-10-01T01:55:26Z,42.805,6.029,13.3034,4.60096,2470.646,2023-10-01T03:57:49Z
2023-10-01T01:58:29Z,42.805,6.029,13.3034,4.60097,2470.637,2023-10-01T04:00:52Z
2023-10-01T02:01:32Z,42.805,6.029,13.3036,4.60097,2470.624,2023-10-01T04:03:55Z
2023-10-01T02:04:35Z,42.805,6.029,13.3034,4.60097,2470.646,2023-10-01T04:06:58Z
2023-10-01T02:07:38Z,42.805,6.029,13.3038,4.60097,2470.6,2023-10-01T04:10:01Z
2023-10-01T02:10:41Z,42.805,6.029,13.3034,4.60099,2470.6,2023-10-01T04:13:04Z
2023-10-01T02:13:44Z,42.805,6.029,13.3036,4.60100,2470.624,2023-10-01T04:16:07Z
2023-10-01T02:16:47Z,42.805,6.029,13.3033,4.60097,2470.624,2023-10-01T04:19:11Z
2023-10-01T02:19:50Z,42.805,6.029,13.3036,4.60097,2470.6,2023-10-01T04:22:14Z
2023-10-01T02:22:53Z,42.805,6.029,13.3034,4.60098,2470.637,2023-10-01T04:25:17Z
2023-10-01T02:25:57Z,42.805,6.029,13.3032,4.60097,2470.637,2023-10-01T04:28:20Z
2023-10-01T02:29:00Z,42.805,6.029,13.3029,4.60097,2470.646,2023-10-01T04:31:23Z
2023-10-01T02:32:03Z,42.805,6.029,13.3034,4.60097,2470.614,2023-10-01T04:34:26Z
2023-10-01T02:35:06Z,42.805,6.029,13.3033,4.60097,2470.637,2023-10-01T04:37:29Z
2023-10-01T02:38:09Z,42.805,6.029,13.3039,4.60097,2470.624,2023-10-01T04:40:32Z
2023-10-01T02:41:12Z,42.805,6.029,13.3036,4.60097,2470.624,2023-10-01T04:43:35Z
2023-10-01T02:44:15Z,42.805,6.029,13.3033,4.60098,2470.624,2023-10-01T04:46:38Z
2023-10-01T02:47:18Z,42.805,6.029,13.3036,4.60098,2470.6,2023-10-01T04:49:41Z
2023-10-01T02:50:21Z,42.805,6.029,13.3033,4.60101,2470.577,2023-10-01T04:52:44Z
2023-10-01T02:53:24Z,42.805,6.029,13.3035,4.60098,2470.637,2023-10-01T04:55:48Z
2023-10-01T02:56:27Z,42.805,6.029,13.3037,4.60097,2470.6,2023-10-01T04:58:51Z
2023-10-01T02:59:30Z,42.805,6.029,13.3034,4.60099,2470.646,2023-10-01T05:01:54Z
2023-10-01T03:02:33Z,42.805,6.029,13.3034,4.60098,2470.614,2023-10-01T05:04:57Z
2023-10-01T03:05:36Z,42.805,6.029,13.3034,4.60098,2470.6,2023-10-01T05:08:00Z
2023-10-01T03:08:40Z,42.805,6.029,13.3039,4.60098,2470.684,2023-10-01T05:11:03Z
2023-10-01T03:11:43Z,42.805,6.029,13.3034,4.60099,2470.624,2023-10-01T05:14:06Z
2023-10-01T03:14:46Z,42.805,6.029,13.3036,4.60104,2470.646,2023-10-01T05:17:09Z
2023-10-01T03:17:49Z,42.805,6.029,13.3037,4.60098,2470.6,2023-10-01T05:20:12Z
2023-10-01T03:20:52Z,42.805,6.029,13.3038,4.60099,2470.624,2023-10-01T05:23:15Z
2023-10-01T03:23:55Z,42.805,6.029,13.3036,4.60099,2470.624,2023-10-01T05:26:18Z
2023-10-01T03:26:58Z,42.805,6.029,13.3036,4.60101,2470.6,2023-10-01T05:29:21Z
2023-10-01T03:30:01Z,42.805,6.029,13.3037,4.60099,2470.684,2023-10-01T05:32:24Z
2023-10-01T03:33:04Z,42.805,6.029,13.3036,4.60099,2470.624,2023-10-01T05:35:28Z
2023-10-01T03:36:07Z,42.805,6.029,13.3031,4.60099,2470.661,2023-10-01T05:38:31Z
2023-10-01T03:39:10Z,42.805,6.029,13.3036,4.60099,2470.624,2023-10-01T05:41:34Z
2023-10-01T03:42:13Z,42.805,6.029,13.3036,4.60098,2470.624,2023-10-01T05:44:37Z
2023-10-01T03:45:17Z,42.805,6.029,13.3039,4.60099,2470.646,2023-10-01T05:47:40Z
2023-10-01T03:48:20Z,42.805,6.029,13.3036,4.60099,2470.637,2023-10-01T05:50:43Z
2023-10-01T03:51:23Z,42.805,6.029,13.3037,4.60099,2470.646,2023-10-01T05:53:46Z
2023-10-01T03:54:26Z,42.805,6.029,13.3037,4.60099,2470.646,2023-10-01T05:56:49Z
2023-10-01T03:57:29Z,42.805,6.029,13.3032,4.60099,2470.646,2023-10-01T05:59:52Z
2023-10-01T04:00:32Z,42.805,6.029,13.3037,4.60100,2470.646,2023-10-01T06:02:55Z
2023-10-01T04:03:35Z,42.805,6.029,13.3034,4.60099,2470.646,2023-10-01T06:05:58Z
2023-10-01T04:06:38Z,42.805,6.029,13.3036,4.60099,2470.67,2023-10-01T06:09:01Z
2023-10-01T04:09:41Z,42.805,6.029,13.3039,4.60099,2470.661,2023-10-01T06:12:04Z
2023-10-01T04:12:44Z,42.805,6.029,13.3042,4.60099,2470.646,2023-10-01T06:15:07Z
2023-10-01T04:15:47Z,42.805,6.029,13.3036,4.60102,2470.67,2023-10-01T06:18:11Z
2023-10-01T04:18:50Z,42.805,6.029,13.3041,4.60099,2470.684,2023-10-01T06:21:14Z
2023-10-01T04:21:53Z,42.805,6.029,13.3033,4.60100,2470.67,2023-10-01T06:24:17Z
2023-10-01T04:24:56Z,42.805,6.029,13.3039,4.60100,2470.684,2023-10-01T06:27:20Z
2023-10-01T04:28:00Z,42.805,6.029,13.3034,4.60101,2470.633,2023-10-01T06:30:23Z
2023-10-01T04:31:02Z,42.805,6.029,13.3040,4.60099,2470.646,2023-10-01T06:33:26Z
2023-10-01T04:34:05Z,42.805,6.029,13.3038,4.60099,2470.707,2023-10-01T06:36:29Z
2023-10-01T04:37:08Z,42.805,6.029,13.3038,4.60099,2470.74,2023-10-01T06:39:32Z
2023-10-01T04:40:11Z,42.805,6.029,13.3037,4.60099,2470.693,2023-10-01T06:42:35Z
2023-10-01T04:43:15Z,42.805,6.029,13.3037,4.60099,2470.717,2023-10-01T06:45:38Z
2023-10-01T04:46:18Z,42.805,6.029,13.3039,4.60100,2470.707,2023-10-01T06:48:41Z
2023-10-01T04:49:21Z,42.805,6.029,13.3041,4.60101,2470.717,2023-10-01T06:51:44Z
2023-10-01T04:52:24Z,42.805,6.029,13.3038,4.60100,2470.684,2023-10-01T06:54:47Z
2023-10-01T04:55:27Z,42.805,6.029,13.3033,4.60099,2470.707,2023-10-01T06:57:50Z
2023-10-01T04:58:30Z,42.805,6.029,13.3036,4.60102,2470.73,2023-10-01T07:00:53Z
2023-10-01T05:01:33Z,42.805,6.029,13.3036,4.60101,2470.693,2023-10-01T07:03:56Z
2023-10-01T05:04:36Z,42.805,6.029,13.3038,4.60099,2470.73,2023-10-01T07:06:59Z
2023-10-01T05:07:39Z,42.805,6.029,13.3038,4.60102,2470.73,2023-10-01T07:10:02Z
2023-10-01T05:10:42Z,42.805,6.029,13.3036,4.60100,2470.717,2023-10-01T07:13:06Z
2023-10-01T05:13:45Z,42.805,6.029,13.3035,4.60101,2470.717,2023-10-01T07:16:09Z
2023-10-01T05:16:48Z,42.805,6.029,13.3034,4.60099,2470.74,2023-10-01T07:19:12Z
2023-10-01T05:19:51Z,42.805,6.029,13.3038,4.60101,2470.74,2023-10-01T07:22:15Z
2023-10-01T05:22:54Z,42.805,6.029,13.3039,4.60101,2470.693,2023-10-01T07:25:18Z
2023-10-01T05:25:58Z,42.805,6.029,13.3034,4.60101,2470.754,2023-10-01T07:28:21Z
2023-10-01T05:29:01Z,42.805,6.029,13.3041,4.60101,2470.74,2023-10-01T07:31:24Z
2023-10-01T05:32:04Z,42.805,6.029,13.3034,4.60101,2470.754,2023-10-01T07:34:27Z
2023-10-01T05:35:07Z,42.805,6.029,13.3036,4.60102,2470.717,2023-10-01T07:37:30Z
2023-10-01T05:38:10Z,42.805,6.029,13.3036,4.60101,2470.787,2023-10-01T07:40:33Z
2023-10-01T05:41:13Z,42.805,6.029,13.3039,4.60102,2470.754,2023-10-01T07:43:36Z
2023-10-01T05:44:16Z,42.805,6.029,13.3041,4.60101,2470.754,2023-10-01T07:46:39Z
2023-10-01T05:47:19Z,42.805,6.029,13.3039,4.60102,2470.74,2023-10-01T07:49:42Z
2023-10-01T05:50:22Z,42.805,6.029,13.3037,4.60102,2470.763,2023-10-01T07:52:46Z
2023-10-01T05:53:25Z,42.805,6.029,13.3037,4.60102,2470.74,2023-10-01T07:55:49Z
2023-10-01T05:56:28Z,42.805,6.029,13.3036,4.60102,2470.777,2023-10-01T07:58:52Z
2023-10-01T05:59:31Z,42.805,6.029,13.3038,4.60102,2470.777,2023-10-01T08:01:55Z
2023-10-01T06:02:35Z,42.805,6.029,13.3036,4.60102,2470.787,2023-10-01T08:04:58Z
2023-10-01T06:05:38Z,42.805,6.029,13.3040,4.60104,2470.787,2023-10-01T08:08:01Z
2023-10-01T06:08:41Z,42.805,6.029,13.3040,4.60102,2470.787,2023-10-01T08:11:04Z
2023-10-01T06:11:44Z,42.805,6.029,13.3035,4.60103,2470.8,2023-10-01T08:14:07Z
2023-10-01T06:14:47Z,42.805,6.029,13.3039,4.60102,2470.81,2023-10-01T08:17:10Z
2023-10-01T06:17:50Z,42.805,6.029,13.3040,4.60103,2470.763,2023-10-01T08:20:13Z
2023-10-01T06:20:53Z,42.805,6.029,13.3039,4.60102,2470.787,2023-10-01T08:23:16Z
2023-10-01T06:23:56Z,42.805,6.029,13.3038,4.60102,2470.847,2023-10-01T08:26:19Z
2023-10-01T06:26:59Z,42.805,6.029,13.3039,4.60102,2470.8,2023-10-01T08:29:22Z
2023-10-01T06:30:02Z,42.805,6.029,13.3040,4.60103,2470.847,2023-10-01T08:32:26Z
2023-10-01T06:33:06Z,42.805,6.029,13.3036,4.60102,2470.833,2023-10-01T08:35:29Z
2023-10-01T06:36:09Z,42.805,6.029,13.3039,4.60103,2470.81,2023-10-01T08:38:32Z
2023-10-01T06:39:12Z,42.805,6.029,13.3038,4.60102,2470.833,2023-10-01T08:41:35Z
2023-10-01T06:42:15Z,42.805,6.029,13.3038,4.60102,2470.824,2023-10-01T08:44:38Z
2023-10-01T06:45:18Z,42.805,6.029,13.3040,4.60104,2470.857,2023-10-01T08:47:41Z
2023-10-01T06:48:21Z,42.805,6.029,13.3036,4.60103,2470.857,2023-10-01T08:50:44Z
2023-10-01T06:51:24Z,42.805,6.029,13.3036,4.60103,2470.833,2023-10-01T08:53:47Z
2023-10-01T06:54:27Z,42.805,6.029,13.3034,4.60103,2470.833,2023-10-01T08:56:51Z
2023-10-01T06:57:30Z,42.805,6.029,13.3038,4.60102,2470.81,2023-10-01T08:59:54Z
2023-10-01T07:00:33Z,42.805,6.029,13.3041,4.60103,2470.824,2023-10-01T09:02:57Z
2023-10-01T07:03:36Z,42.805,6.029,13.3039,4.60104,2470.847,2023-10-01T09:06:00Z
2023-10-01T07:06:39Z,42.805,6.029,13.3035,4.60103,2470.824,2023-10-01T09:09:03Z
2023-10-01T07:09:43Z,42.805,6.029,13.3039,4.60104,2470.857,2023-10-01T09:12:06Z
2023-10-01T07:12:46Z,42.805,6.029,13.3040,4.60103,2470.833,2023-10-01T09:15:09Z
2023-10-01T07:15:49Z,42.805,6.029,13.3040,4.60103,2470.857,2023-10-01T09:18:12Z
2023-10-01T07:18:52Z,42.805,6.029,13.3036,4.60108,2470.843,2023-10-01T09:21:15Z
2023-10-01T07:21:55Z,42.805,6.029,13.3039,4.60104,2470.857,2023-10-01T09:24:18Z
2023-10-01T07:24:58Z,42.805,6.029,13.3037,4.60104,2470.843,2023-10-01T09:27:21Z
2023-10-01T07:28:01Z,42.805,6.029,13.3038,4.60104,2470.81,2023-10-01T09:30:24Z
2023-10-01T07:31:04Z,42.805,6.029,13.3042,4.60104,2470.871,2023-10-01T09:33:27Z
2023-10-01T07:34:07Z,42.805,6.029,13.3042,4.60104,2470.833,2023-10-01T09:36:30Z
2023-10-01T07:37:10Z,42.805,6.029,13.3038,4.60104,2470.871,2023-10-01T09:39:34Z
2023-10-01T07:40:13Z,42.805,6.029,13.3038,4.60103,2470.847,2023-10-01T09:42:37Z
2023-10-01T07:43:16Z,42.805,6.029,13.3039,4.60104,2470.871,2023-10-01T09:45:40Z
2023-10-01T07:46:19Z,42.805,6.029,13.3038,4.60103,2470.833,2023-10-01T09:48:43Z
2023-10-01T07:49:23Z,42.805,6.029,13.3038,4.60104,2470.871,2023-10-01T09:51:46Z
2023-10-01T07:52:26Z,42.805,6.029,13.3036,4.60103,2470.833,2023-10-01T09:54:49Z
2023-10-01T07:55:29Z,42.805,6.029,13.3036,4.60104,2470.88,2023-10-01T09:57:52Z
2023-10-01T07:58:32Z,42.805,6.029,13.3041,4.60104,2470.857,2023-10-01T10:00:55Z
2023-10-01T08:01:35Z,42.805,6.029,13.3041,4.60104,2470.857,2023-10-01T10:03:58Z
2023-10-01T08:04:38Z,42.805,6.029,13.3040,4.60104,2470.917,2023-10-01T10:07:01Z
2023-10-01T08:07:41Z,42.805,6.029,13.3038,4.60104,2470.857,2023-10-01T10:10:04Z
2023-10-01T08:10:44Z,42.805,6.029,13.3043,4.60104,2470.88,2023-10-01T10:13:07Z
2023-10-01T08:13:47Z,42.805,6.029,13.3041,4.60104,2470.857,2023-10-01T10:16:10Z
2023-10-01T08:16:50Z,42.805,6.029,13.3038,4.60104,2470.857,2023-10-01T10:19:14Z
2023-10-01T08:19:53Z,42.805,6.029,13.3039,4.60104,2470.833,2023-10-01T10:22:17Z
2023-10-01T08:22:56Z,42.805,6.029,13.3034,4.60104,2470.857,2023-10-01T10:25:20Z
2023-10-01T08:26:00Z,42.805,6.029,13.3039,4.60105,2470.857,2023-10-01T10:28:23Z
2023-10-01T08:29:03Z,42.805,6.029,13.3041,4.60106,2470.857,2023-10-01T10:31:26Z
2023-10-01T08:32:06Z,42.805,6.029,13.3041,4.60104,2470.833,2023-10-01T10:34:29Z
2023-10-01T08:35:09Z,42.805,6.029,13.3039,4.60105,2470.871,2023-10-01T10:37:32Z
2023-10-01T08:38:12Z,42.805,6.029,13.3040,4.60107,2470.857,2023-10-01T10:40:35Z
2023-10-01T08:41:15Z,42.805,6.029,13.3041,4.60104,2470.857,2023-10-01T10:43:38Z
2023-10-01T08:44:18Z,42.805,6.029,13.3040,4.60104,2470.833,2023-10-01T10:46:41Z
2023-10-01T08:47:21Z,42.805,6.029,13.3041,4.60105,2470.857,2023-10-01T10:49:44Z
2023-10-01T08:50:24Z,42.805,6.029,13.3041,4.60105,2470.847,2023-10-01T10:52:48Z
2023-10-01T08:53:27Z,42.805,6.029,13.3039,4.60105,2470.857,2023-10-01T10:55:51Z
2023-10-01T08:56:30Z,42.805,6.029,13.3039,4.60105,2470.81,2023-10-01T10:58:54Z
2023-10-01T08:59:33Z,42.805,6.029,13.3037,4.60106,2470.857,2023-10-01T11:01:57Z
2023-10-01T09:02:36Z,42.805,6.029,13.3040,4.60105,2470.857,2023-10-01T11:05:00Z
2023-10-01T09:05:40Z,42.805,6.029,13.3039,4.60105,2470.847,2023-10-01T11:08:03Z
2023-10-01T09:08:43Z,42.805,6.029,13.3035,4.60106,2470.857,2023-10-01T11:11:06Z
2023-10-01T09:11:46Z,42.805,6.029,13.3039,4.60104,2470.857,2023-10-01T11:14:09Z
2023-10-01T09:14:49Z,42.805,6.029,13.3039,4.60105,2470.88,2023-10-01T11:17:12Z
2023-10-01T09:17:52Z,42.805,6.029,13.3039,4.60104,2470.847,2023-10-01T11:20:15Z
2023-10-01T09:20:55Z,42.805,6.029,13.3043,4.60105,2470.81,2023-10-01T11:23:18Z
2023-10-01T09:23:58Z,42.805,6.029,13.3041,4.60106,2470.82,2023-10-01T11:26:21Z
2023-10-01T09:27:01Z,42.805,6.029,13.3038,4.60105,2470.81,2023-10-01T11:29:24Z
2023-10-01T09:30:04Z,42.805,6.029,13.3043,4.60105,2470.847,2023-10-01T11:32:27Z
2023-10-01T09:33:07Z,42.805,6.029,13.3038,4.60107,2470.833,2023-10-01T11:35:31Z
2023-10-01T09:36:10Z,42.805,6.029,13.3041,4.60105,2470.833,2023-10-01T11:38:34Z
2023-10-01T09:39:13Z,42.805,6.029,13.3035,4.60104,2470.833,2023-10-01T11:41:37Z
2023-10-01T09:42:16Z,42.805,6.029,13.3039,4.60105,2470.81,2023-10-01T11:44:40Z
2023-10-01T09:45:20Z,42.805,6.029,13.3040,4.60105,2470.833,2023-10-01T11:47:43Z
2023-10-01T09:48:23Z,42.805,6.029,13.3041,4.60105,2470.833,2023-10-01T11:50:46Z
2023-10-01T09:51:26Z,42.805,6.029,13.3040,4.60106,2470.833,2023-10-01T11:53:49Z
2023-10-01T09:54:29Z,42.805,6.029,13.3042,4.60106,2470.81,2023-10-01T11:56:52Z
2023-10-01T09:57:32Z,42.805,6.029,13.3043,4.60105,2470.81,2023-10-01T11:59:55Z
2023-10-01T10:00:35Z,42.805,6.029,13.3038,4.60106,2470.81,2023-10-01T12:02:58Z
2023-10-01T10:03:38Z,42.805,6.029,13.3039,4.60105,2470.847,2023-10-01T12:06:01Z
2023-10-01T10:06:41Z,42.805,6.029,13.3039,4.60106,2470.847,2023-10-01T12:09:04Z
2023-10-01T10:09:44Z,42.805,6.029,13.3039,4.60107,2470.824,2023-10-01T12:12:08Z
2023-10-01T10:12:47Z,42.805,6.029,13.3040,4.60107,2470.787,2023-10-01T12:15:11Z
2023-10-01T10:15:50Z,42.805,6.029,13.3036,4.60105,2470.833,2023-10-01T12:18:14Z
2023-10-01T10:18:53Z,42.805,6.029,13.3039,4.60105,2470.824,2023-10-01T12:21:17Z
2023-10-01T10:21:57Z,42.805,6.029,13.3040,4.60105,2470.787,2023-10-01T12:24:20Z
2023-10-01T10:25:00Z,42.805,6.029,13.3041,4.60105,2470.763,2023-10-01T12:27:23Z
2023-10-01T10:28:03Z,42.805,6.029,13.3038,4.60105,2470.787,2023-10-01T12:30:26Z
2023-10-01T10:31:06Z,42.805,6.029,13.3039,4.60106,2470.81,2023-10-01T12:33:29Z
2023-10-01T10:34:09Z,42.805,6.029,13.3041,4.60106,2470.787,2023-10-01T12:36:32Z
2023-10-01T10:37:12Z,42.805,6.029,13.3043,4.60107,2470.796,2023-10-01T12:39:35Z
2023-10-01T10:40:15Z,42.805,6.029,13.3040,4.60108,2470.81,2023-10-01T12:42:38Z
2023-10-01T10:43:18Z,42.805,6.029,13.3036,4.60106,2470.787,2023-10-01T12:45:41Z
2023-10-01T10:46:21Z,42.805,6.029,13.3041,4.60106,2470.8,2023-10-01T12:48:45Z
2023-10-01T10:49:24Z,42.805,6.029,13.3039,4.60105,2470.824,2023-10-01T12:51:48Z
2023-10-01T10:52:27Z,42.805,6.029,13.3041,4.60106,2470.81,2023-10-01T12:54:51Z
2023-10-01T10:55:30Z,42.805,6.029,13.3044,4.60106,2470.773,2023-10-01T12:57:54Z
2023-10-01T10:58:33Z,42.805,6.029,13.3042,4.60107,2470.81,2023-10-01T13:00:57Z
2023-10-01T11:01:37Z,42.805,6.029,13.3046,4.60106,2470.81,2023-10-01T13:04:00Z
2023-10-01T11:04:40Z,42.805,6.029,13.3043,4.60109,2470.763,2023-10-01T13:07:03Z
2023-10-01T11:07:43Z,42.805,6.029,13.3043,4.60105,2470.754,2023-10-01T13:10:06Z
2023-10-01T11:10:46Z,42.805,6.029,13.3043,4.60104,2470.773,2023-10-01T13:13:09Z
2023-10-01T11:13:49Z,42.805,6.029,13.3036,4.60106,2470.777,2023-10-01T13:16:12Z
2023-10-01T11:16:52Z,42.805,6.029,13.3046,4.60105,2470.763,2023-10-01T13:19:15Z
2023-10-01T11:19:55Z,42.805,6.029,13.3040,4.60105,2470.74,2023-10-01T13:22:18Z
2023-10-01T11:22:58Z,42.805,6.029,13.3041,4.60106,2470.763,2023-10-01T13:25:21Z
2023-10-01T11:26:01Z,42.805,6.029,13.3043,4.60105,2470.74,2023-10-01T13:28:25Z
2023-10-01T11:29:04Z,42.805,6.029,13.3041,4.60104,2470.74,2023-10-01T13:31:28Z
2023-10-01T11:32:07Z,42.805,6.029,13.3039,4.60105,2470.763,2023-10-01T13:34:31Z
2023-10-01T11:35:10Z,42.805,6.029,13.3042,4.60105,2470.74,2023-10-01T13:37:34Z
2023-10-01T11:38:14Z,42.805,6.029,13.3041,4.60104,2470.73,2023-10-01T13:40:37Z
2023-10-01T11:41:17Z,42.805,6.029,13.3039,4.60104,2470.74,2023-10-01T13:43:40Z
2023-10-01T11:44:20Z,42.805,6.029,13.3037,4.60104,2470.73,2023-10-01T13:46:43Z
2023-10-01T11:47:23Z,42.805,6.029,13.3040,4.60105,2470.754,2023-10-01T13:49:46Z
2023-10-01T11:50:26Z,42.805,6.029,13.3040,4.60106,2470.73,2023-10-01T13:52:49Z
2023-10-01T11:53:29Z,42.805,6.029,13.3038,4.60104,2470.74,2023-10-01T13:55:52Z
2023-10-01T11:56:32Z,42.805,6.029,13.3039,4.60104,2470.754,2023-10-01T13:58:55Z
2023-10-01T11:59:35Z,42.805,6.029,13.3041,4.60107,2470.74,2023-10-01T14:01:58Z
2023-10-01T12:02:38Z,42.805,6.029,13.3039,4.60104,2470.67,2023-10-01T14:05:02Z
2023-10-01T12:05:41Z,42.805,6.029,13.3039,4.60104,2470.717,2023-10-01T14:08:05Z
2023-10-01T12:08:44Z,42.805,6.029,13.3039,4.60103,2470.717,2023-10-01T14:11:08Z
2023-10-01T12:11:47Z,42.805,6.029,13.3041,4.60104,2470.754,2023-10-01T14:14:11Z
2023-10-01T12:14:50Z,42.805,6.029,13.3043,4.60104,2470.73,2023-10-01T14:17:14Z
2023-10-01T12:17:54Z,42.805,6.029,13.3040,4.60104,2470.717,2023-10-01T14:20:17Z
2023-10-01T12:20:57Z,42.805,6.029,13.3041,4.60103,2470.717,2023-10-01T14:23:20Z
2023-10-01T12:24:00Z,42.805,6.029,13.3039,4.60103,2470.73,2023-10-01T14:26:23Z
2023-10-01T12:27:03Z,42.805,6.029,13.3035,4.60103,2470.707,2023-10-01T14:29:26Z
2023-10-01T12:30:06Z,42.805,6.029,13.3039,4.60102,2470.679,2023-10-01T14:32:29Z
2023-10-01T12:33:09Z,42.805,6.029,13.3039,4.60102,2470.693,2023-10-01T14:35:32Z
2023-10-01T12:36:12Z,42.805,6.029,13.3039,4.60101,2470.707,2023-10-01T14:38:35Z
2023-10-01T12:39:15Z,42.805,6.029,13.3034,4.60102,2470.754,2023-10-01T14:41:38Z
2023-10-01T12:42:18Z,42.805,6.029,13.3038,4.60099,2470.67,2023-10-01T14:44:42Z
2023-10-01T12:45:21Z,42.805,6.029,13.3038,4.60102,2470.693,2023-10-01T14:47:45Z
2023-10-01T12:48:24Z,42.805,6.029,13.3038,4.60102,2470.717,2023-10-01T14:50:48Z
2023-10-01T12:51:27Z,42.805,6.029,13.3035,4.60101,2470.707,2023-10-01T14:53:51Z
2023-10-01T12:54:31Z,42.805,6.029,13.3035,4.60100,2470.693,2023-10-01T14:56:54Z
2023-10-01T12:57:34Z,42.805,6.029,13.3036,4.60101,2470.717,2023-10-01T14:59:57Z
2023-10-01T13:00:37Z,42.805,6.029,13.3034,4.60104,2470.693,2023-10-01T15:03:00Z
2023-10-01T13:03:40Z,42.805,6.029,13.3039,4.60101,2470.646,2023-10-01T15:06:03Z
2023-10-01T13:06:43Z,42.805,6.029,13.3039,4.60101,2470.646,2023-10-01T15:09:06Z
2023-10-01T13:09:46Z,42.805,6.029,13.3036,4.60101,2470.67,2023-10-01T15:12:09Z
2023-10-01T13:12:49Z,42.805,6.029,13.3037,4.60099,2470.646,2023-10-01T15:15:12Z
2023-10-01T13:15:52Z,42.805,6.029,13.3036,4.60099,2470.707,2023-10-01T15:18:15Z
2023-10-01T13:18:55Z,42.805,6.029,13.3034,4.60100,2470.67,2023-10-01T15:21:19Z
2023-10-01T13:21:58Z,42.805,6.029,13.3038,4.60101,2470.684,2023-10-01T15:24:22Z
2023-10-01T13:25:01Z,42.805,6.029,13.3036,4.60099,2470.693,2023-10-01T15:27:25Z
2023-10-01T13:28:04Z,42.805,6.029,13.3034,4.60098,2470.67,2023-10-01T15:30:28Z
2023-10-01T13:31:08Z,42.805,6.029,13.3039,4.60099,2470.67,2023-10-01T15:33:31Z
2023-10-01T13:34:11Z,42.805,6.029,13.3039,4.60099,2470.646,2023-10-01T15:36:34Z
2023-10-01T13:37:14Z,42.805,6.029,13.3036,4.60101,2470.646,2023-10-01T15:39:37Z
2023-10-01T13:40:17Z,42.805,6.029,13.3036,4.60099,2470.661,2023-10-01T15:42:40Z
2023-10-01T13:43:20Z,42.805,6.029,13.3039,4.60099,2470.661,2023-10-01T15:45:43Z
2023-10-01T13:46:23Z,42.805,6.029,13.3036,4.60099,2470.684,2023-10-01T15:48:46Z
2023-10-01T13:49:26Z,42.805,6.029,13.3036,4.60098,2470.646,2023-10-01T15:51:49Z
2023-10-01T13:52:29Z,42.805,6.029,13.3037,4.60098,2470.684,2023-10-01T15:54:52Z
2023-10-01T13:55:32Z,42.805,6.029,13.3036,4.60099,2470.646,2023-10-01T15:57:56Z
2023-10-01T13:58:35Z,42.805,6.029,13.3034,4.60099,2470.67,2023-10-01T16:00:59Z
2023-10-01T14:01:38Z,42.805,6.029,13.3036,4.60098,2470.646,2023-10-01T16:04:02Z
2023-10-01T14:04:41Z,42.805,6.029,13.3035,4.60101,2470.661,2023-10-01T16:07:05Z
2023-10-01T14:07:45Z,42.805,6.029,13.3033,4.60101,2470.646,2023-10-01T16:10:08Z
2023-10-01T14:10:48Z,42.805,6.029,13.3036,4.60100,2470.624,2023-10-01T16:13:11Z
2023-10-01T14:13:51Z,42.805,6.029,13.3039,4.60101,2470.684,2023-10-01T16:16:14Z
2023-10-01T14:16:54Z,42.805,6.029,13.3036,4.60099,2470.6,2023-10-01T16:19:17Z
2023-10-01T14:19:57Z,42.805,6.029,13.3036,4.60101,2470.637,2023-10-01T16:22:20Z
2023-10-01T14:23:00Z,42.805,6.029,13.3034,4.60099,2470.646,2023-10-01T16:25:23Z
2023-10-01T14:26:03Z,42.805,6.029,13.3036,4.60099,2470.646,2023-10-01T16:28:26Z
2023-10-01T14:29:06Z,42.805,6.029,13.3036,4.60099,2470.646,2023-10-01T16:31:29Z
2023-10-01T14:32:07Z,42.805,6.029,13.3031,4.60098,2470.646,2023-10-01T16:34:31Z
2023-10-01T14:35:10Z,42.805,6.029,13.3038,4.60101,2470.624,2023-10-01T16:37:34Z
2023-10-01T14:38:14Z,42.805,6.029,13.3035,4.60098,2470.637,2023-10-01T16:40:37Z
2023-10-01T14:41:17Z,42.805,6.029,13.3039,4.60099,2470.661,2023-10-01T16:43:40Z
2023-10-01T14:44:20Z,42.805,6.029,13.3034,4.60098,2470.646,2023-10-01T16:46:43Z
2023-10-01T14:47:23Z,42.805,6.029,13.3033,4.60098,2470.624,2023-10-01T16:49:46Z
2023-10-01T14:50:26Z,42.805,6.029,13.3039,4.60099,2470.646,2023-10-01T16:52:49Z
2023-10-01T14:53:29Z,42.805,6.029,13.3036,4.60099,2470.646,2023-10-01T16:55:52Z
2023-10-01T14:56:32Z,42.805,6.029,13.3037,4.60098,2470.646,2023-10-01T16:58:55Z
2023-10-01T14:59:35Z,42.805,6.029,13.3036,4.60099,2470.624,2023-10-01T17:01:59Z
2023-10-01T15:02:38Z,42.805,6.029,13.3028,4.60098,2470.624,2023-10-01T17:05:02Z